#timestamp,LO_Frequency,Hit,StdDev 
1537826415.7,286047003.0,N
1537826435.5,286047007.5,N
1537826455.3,286047004.7,N
1537826475.2,286047007.3,N
1537826495.0,286047007.0,N
1537826495.9,286047007.0,N
1537826515.8,286047006.5,N
1537826535.6,286047002.9,N
1537826555.4,286047003.7,N
1537826575.3,286047005.9,N
1537826595.1,286047005.8,N
1537826615.9,286047003.7,N
1537826635.7,286047003.4,N
1537826655.5,286047004.3,N
1537826675.4,286047004.4,N
1537826725.2,286046998.6,E
1537826735.2,286047000.0,N
1537826755.9,286047005.7,P
1537826775.7,286047003.4,N
1537826795.6,286047005.8,N
1537826815.4,286047005.8,N
1537826835.2,286047005.5,N
1537826855.1,286047009.2,Y
1537826856.0,286047009.2,P
1537826875.8,286047003.1,N
1537826895.7,286047005.3,N
1537826915.5,286047007.0,Y
1537826935.3,286047001.6,P
1537826955.2,286047002.5,N
1537826975.0,286047001.7,N
1537826975.9,286047001.7,N
1537826995.7,286047003.9,N
1537827015.6,286047004.3,N
1537827035.4,286047003.8,N
1537827055.3,286047003.9,N
1537827075.1,286047003.7,N
1537827095.8,286047001.9,N
1537827115.7,286047000.0,N
1537827135.5,286046999.8,N
1537827155.4,286047002.0,N
1537827175.2,286046999.8,N
1537827195.0,286046999.7,N
1537827195.9,286046999.7,N
1537827215.8,286047000.0,N
1537827235.6,286047000.0,N
1537827255.4,286046998.6,N
1537827275.3,286047001.0,N
1537827295.1,286047000.2,N
1537827315.9,286046998.1,N
1537827335.7,286047001.0,N
1537827355.5,286047000.3,N
1537827375.4,286047001.1,N
1537827395.2,286046998.2,N
1537827415.0,286046998.5,N
1537827415.9,286046998.5,N
1537827435.8,286046999.3,N
1537827455.6,286046999.6,N
1537827475.5,286046996.5,N
1537827495.3,286046998.1,N
1537827515.1,286046996.5,N
1537827535.9,286046996.9,N
1537827555.7,286046996.9,N
1537827575.5,286046998.3,N
1537827595.4,286047000.2,N
1537827615.2,286047001.9,N
1537827635.1,286047000.5,N
1537827636.0,286047000.5,N
1537827655.8,286047000.4,N
1537827675.6,286047002.7,N
1537827695.5,286046996.9,N
1537827715.3,286046999.2,N
1537827735.1,286046996.5,N
1537827755.9,286046996.6,N
1537827775.7,286046997.2,N
1537827795.6,286047001.1,N
1537827815.4,286046999.0,N
1537827835.2,286046999.2,N
1537827855.1,286046999.6,N
1537827856.0,286046999.6,N
1537827875.8,286046996.7,N
1537827895.6,286047000.8,N
1537827915.5,286046997.0,N
1537827935.3,286046995.3,N
1537827955.2,286046997.5,N
1537827975.9,286046998.6,N
1537827995.7,286046999.9,N
1537828015.6,286046999.9,N
1537828035.4,286047002.6,N
1537828055.2,286047001.3,N
1537828075.1,286047003.6,N
1537828076.0,286047003.6,N
1537828095.8,286047003.4,N
1537828115.7,286047003.7,N
1537828135.5,286047003.2,N
1537828155.3,286047004.2,N
1537828175.2,286047001.7,N
1537828195.9,286047003.8,N
1537828215.7,286047004.1,N
1537828235.6,286047003.0,N
1537828255.4,286047001.9,N
1537828275.2,286047003.8,N
1537828295.1,286047001.5,N
1537828296.0,286047001.5,N
1537828315.8,286047004.3,N
1537828335.7,286047003.2,N
1537828355.5,286047004.3,N
1537828375.3,286047002.6,N
1537828395.2,286047004.3,N
1537828415.0,286047003.1,N
1537828415.9,286047003.1,N
1537828435.7,286047005.8,N
1537828455.6,286047004.6,N
1537828475.4,286047004.5,N
1537828495.3,286047006.9,Y
1537828515.1,286047005.5,P
1537828535.8,286047005.5,P
1537828555.7,286047003.3,N
1537828575.5,286047005.8,Y
1537828595.4,286047002.2,P
1537828615.2,286047004.0,P
1537828635.0,286047001.5,N
1537828635.9,286047001.5,N
1537828655.8,286047001.7,N
1537828675.6,286047002.0,N
1537828695.4,286047001.4,N
1537828715.3,286047001.9,N
1537828735.1,286047002.4,N
1537828755.9,286047001.5,N
1537828775.7,286047004.0,Y
1537828795.5,286046999.7,P
1537828815.4,286046999.7,N
1537828835.2,286047000.6,N
1537828855.0,286046998.1,N
1537828855.9,286046998.1,N
1537828875.8,286047000.3,N
1537828895.6,286046999.9,N
1537828915.5,286047001.5,N
1537828935.3,286047000.5,N
1537828955.1,286047002.3,N
1537828975.9,286046998.7,N
1537828995.7,286047000.3,N
1537829015.5,286047002.4,N
1537829035.4,286046999.8,N
1537829055.2,286046999.8,N
1537829075.1,286047002.0,N
1537829076.0,286047002.0,N
1537829095.8,286047001.8,N
1537829115.6,286047001.9,N
1537829135.5,286047001.5,N
1537829155.3,286047003.9,N
1537829175.1,286047004.2,N
1537829195.9,286047002.6,N
1537829215.7,286047004.1,N
1537829235.6,286047005.2,Y
1537829255.4,286047003.1,P
1537829275.2,286047001.5,N
1537829295.1,286047001.8,N
1537829296.0,286047001.8,N
1537829315.8,286047004.0,Y
1537829335.6,286047002.8,P
1537829355.5,286046999.1,N
1537829375.3,286046997.1,N
1537829395.2,286046998.5,N
1537829415.9,286047001.9,N
1537829435.7,286047001.0,N
1537829455.6,286047002.2,N
1537829475.4,286046999.9,N
1537829495.2,286046999.0,N
1537829515.1,286046997.2,N
1537829516.0,286046997.2,N
1537829535.8,286046999.5,N
1537829555.7,286046999.3,N
1537829575.5,286046996.5,N
1537829595.3,286047000.6,N
1537829615.2,286046999.9,N
1537829635.0,286047002.7,N
1537829635.9,286047002.7,N
1537829655.8,286047005.3,N
1537829675.6,286047003.3,N
1537829695.4,286047001.6,N
1537829715.3,286047003.0,N
1537829735.1,286047003.2,N
1537829736.0,286047003.2,N
1537829755.8,286047004.0,N
1537829775.7,286047003.0,N
1537829795.5,286047004.6,N
1537829815.3,286047004.5,N
1537829835.2,286047008.7,Y
1537829855.0,286047006.3,P
1537829855.9,286047006.3,N
1537829875.8,286047009.2,P
1537829895.6,286047007.0,N
1537829915.4,286047008.6,Y
1537829935.3,286047002.6,P
1537829955.1,286046999.9,N
1537829975.9,286047000.1,N
1537829995.7,286047000.6,N
